,,Stat6,,Stat2,,Stat8,,Stat9,,Stat10,,Wind1,,Wind1,
time,status,PA1M_AVG,status,PR1M_SUM,status,RH1M_AVG,status,SR1M_AVG,status,TA1M_AVG,status,W1dAve1m,status,W1sAve1m,
2005-09-04, 00:00:00,VALID,916.471,VALID,0,VALID,99.5081,VALID,-0.0339617,VALID,20.3542,VALID,2,VALID,0.818788,
2005-09-04, 00:01:00,VALID,916.475,VALID,0,VALID,99.5221,VALID,-0.0849042,VALID,20.3445,VALID,12,VALID,0.864844,
2005-09-04, 00:02:00,VALID,916.468,VALID,0,VALID,99.5348,VALID,-0.0169808,VALID,20.3544,VALID,4,VALID,0.428735,
2005-09-04, 00:03:00,VALID,916.468,VALID,0,VALID,99.5527,VALID,-0.0339617,VALID,20.3673,VALID,4,VALID,0.611235,
2005-09-04, 00:04:00,VALID,916.456,VALID,0,VALID,99.5107,VALID,-0.0679233,VALID,20.3611,VALID,1,VALID,0.495617,
2005-09-04, 00:05:00,VALID,916.457,VALID,0,VALID,99.5247,VALID,-0.0849042,VALID,20.348,VALID,2,VALID,0.584302,
2005-09-04, 00:06:00,VALID,916.439,VALID,0,VALID,99.6035,VALID,-0.0339617,VALID,20.3579,VALID,358,VALID,0.808222,
2005-09-04, 00:07:00,VALID,916.426,VALID,0,VALID,99.6836,VALID,-0.0679233,VALID,20.3574,VALID,1,VALID,0.730945,
2005-09-04, 00:08:00,VALID,916.403,VALID,0,VALID,99.6913,VALID,-0.0509425,VALID,20.3609,VALID,349,VALID,0.806818,
2005-09-04, 00:09:00,VALID,916.387,VALID,0,VALID,99.7141,VALID,-0.0339617,VALID,20.3773,VALID,348,VALID,0.397773,
2005-09-04, 00:10:00,VALID,916.341,VALID,0,VALID,99.7866,VALID,-0.0339617,VALID,20.3703,VALID,347,VALID,0.298735,
2005-09-04, 00:11:00,VALID,916.323,VALID,0,VALID,99.8388,VALID,-0.0679233,VALID,20.3967,VALID,316,VALID,0.34809,
2005-09-04, 00:12:00,VALID,916.269,VALID,0,VALID,99.7955,VALID,-0.0509425,VALID,20.4029,VALID,258,VALID,0.0874256,
2005-09-04, 00:13:00,VALID,916.251,VALID,0,VALID,99.8693,VALID,-0.0679233,VALID,20.412,VALID,320,VALID,0.580171,
2005-09-04, 00:14:00,VALID,916.219,VALID,0,VALID,99.84,VALID,-0.0509425,VALID,20.4449,VALID,303,VALID,0.851199,
2005-09-04, 00:15:00,VALID,916.184,VALID,0,VALID,99.512,VALID,-0.0169808,VALID,20.4252,VALID,229,VALID,0.860609,
2005-09-04, 00:16:00,VALID,916.177,VALID,0,VALID,99.6442,VALID,0.0849042,VALID,20.4307,VALID,11,VALID,0.904154,
2005-09-04, 00:17:00,VALID,916.123,VALID,0,VALID,99.5654,VALID,0.0339617,VALID,20.4339,VALID,21,VALID,1.21573,
2005-09-04, 00:18:00,VALID,916.094,VALID,0,VALID,99.6747,VALID,0.0339617,VALID,20.4438,VALID,357,VALID,0.985491,
2005-09-04, 00:19:00,VALID,916.053,VALID,0,VALID,99.3886,VALID,0.0169808,VALID,20.4304,VALID,250,VALID,1.49531,
2005-09-04, 00:20:00,VALID,916.045,VALID,0,VALID,98.8622,VALID,0,VALID,20.4075,VALID,273,VALID,1.7474,
2005-09-04, 00:21:00,VALID,916.037,VALID,0,VALID,98.3599,VALID,0.0509425,VALID,20.4145,VALID,11,VALID,0.588844,
2005-09-04, 00:22:00,VALID,916.024,VALID,0,VALID,98.4514,VALID,0.0679233,VALID,20.4334,VALID,26,VALID,0.796317,
2005-09-04, 00:23:00,VALID,916.008,VALID,0,VALID,98.7287,VALID,0.0509425,VALID,20.4396,VALID,62,VALID,0.769792,
2005-09-04, 00:24:00,VALID,916.008,VALID,0,VALID,98.7287,VALID,0.0169808,VALID,20.4199,VALID,203,VALID,0.674733,
2005-09-04, 00:25:00,VALID,915.996,VALID,0.2,VALID,98.8914,VALID,0.0339617,VALID,20.4177,VALID,178,VALID,0.285429,
2005-09-04, 00:26:00,VALID,915.983,VALID,0,VALID,99.0542,VALID,0.0339617,VALID,20.4048,VALID,91,VALID,0.569425,
2005-09-04, 00:27:00,VALID,915.95,VALID,0,VALID,99.072,VALID,0,VALID,20.3792,VALID,82,VALID,0.673177,
2005-09-04, 00:28:00,VALID,915.934,VALID,0,VALID,99.2894,VALID,0.0169808,VALID,20.386,VALID,69,VALID,0.550694,
2005-09-04, 00:29:00,VALID,915.908,VALID,0,VALID,99.1585,VALID,0.0169808,VALID,20.3467,VALID,206,VALID,0.941964,
2005-09-04, 00:30:00,VALID,915.848,VALID,0,VALID,99.1038,VALID,0,VALID,20.3338,VALID,324,VALID,1.13045,
2005-09-04, 00:31:00,VALID,915.858,VALID,0,VALID,99.1,VALID,0.0169808,VALID,20.3206,VALID,297,VALID,0.617543,
2005-09-04, 00:32:00,VALID,915.855,VALID,0,VALID,98.8762,VALID,0.0169808,VALID,20.3047,VALID,242,VALID,0.471058,
2005-09-04, 00:33:00,VALID,915.845,VALID,0.2,VALID,99.0822,VALID,0.0509425,VALID,20.327,VALID,26,VALID,0.857777,
2005-09-04, 00:34:00,VALID,915.854,VALID,0,VALID,99.086,VALID,0.0169808,VALID,20.3273,VALID,4,VALID,0.599077,
2005-09-04, 00:35:00,VALID,915.859,VALID,0,VALID,99.0338,VALID,0.0169808,VALID,20.3174,VALID,281,VALID,0.619284,
2005-09-04, 00:36:00,VALID,915.846,VALID,0,VALID,98.791,VALID,0.0169808,VALID,20.3146,VALID,134,VALID,0.363814,
2005-09-04, 00:37:00,VALID,915.847,VALID,0,VALID,98.6269,VALID,0.0509425,VALID,20.292,VALID,307,VALID,0.812891,
2005-09-04, 00:38:00,VALID,915.861,VALID,0,VALID,98.6346,VALID,0.0679233,VALID,20.2982,VALID,17,VALID,0.486793,
2005-09-04, 00:39:00,VALID,915.861,VALID,0,VALID,98.8329,VALID,0,VALID,20.3139,VALID,15,VALID,0.771949,
2005-09-04, 00:40:00,VALID,915.883,VALID,0,VALID,98.8037,VALID,0,VALID,20.3049,VALID,15,VALID,0.529916,
2005-09-04, 00:41:00,VALID,915.897,VALID,0,VALID,98.7274,VALID,-0.0849042,VALID,20.2697,VALID,342,VALID,0.418555,
2005-09-04, 00:42:00,VALID,915.915,VALID,0,VALID,98.7566,VALID,-0.0509425,VALID,20.2607,VALID,27,VALID,0.633194,
2005-09-04, 00:43:00,VALID,915.946,VALID,0,VALID,98.9385,VALID,-0.0679233,VALID,20.2578,VALID,15,VALID,0.726563,
2005-09-04, 00:44:00,VALID,915.963,VALID,0,VALID,99.1305,VALID,-0.0509425,VALID,20.2672,VALID,20,VALID,0.981213,
2005-09-04, 00:45:00,VALID,915.965,VALID,0,VALID,98.9753,VALID,-0.0339617,VALID,20.2607,VALID,14,VALID,1.00746,
2005-09-04, 00:46:00,VALID,915.961,VALID,0,VALID,98.9321,VALID,-0.0849042,VALID,20.2287,VALID,12,VALID,0.957317,
2005-09-04, 00:47:00,VALID,915.955,VALID,0,VALID,99.1,VALID,-0.101885,VALID,20.2287,VALID,7,VALID,0.956931,
2005-09-04, 00:48:00,VALID,915.93,VALID,0,VALID,99.1254,VALID,-0.101885,VALID,20.2287,VALID,18,VALID,0.771621,
2005-09-04, 00:49:00,VALID,915.91,VALID,0,VALID,99.1597,VALID,-0.0679233,VALID,20.2026,VALID,11,VALID,0.425223,
2005-09-04, 00:50:00,VALID,915.893,VALID,0,VALID,99.1457,VALID,-0.0679233,VALID,20.1964,VALID,3,VALID,0.256882,
2005-09-04, 00:51:00,VALID,915.863,VALID,0,VALID,99.3619,VALID,-0.0339617,VALID,20.2061,VALID,2,VALID,0.159598,
2005-09-04, 00:52:00,VALID,915.852,VALID,0,VALID,99.4547,VALID,-0.0679233,VALID,20.2091,VALID,2,VALID,0.393229,
2005-09-04, 00:53:00,VALID,915.833,VALID,0,VALID,99.2525,VALID,-0.0679233,VALID,20.1966,VALID,348,VALID,0.957812,
2005-09-04, 00:54:00,VALID,915.84,VALID,0,VALID,99.2754,VALID,-0.0849042,VALID,20.1902,VALID,30,VALID,0.596989,
2005-09-04, 00:55:00,VALID,915.837,VALID,0,VALID,99.3683,VALID,-0.0849042,VALID,20.1673,VALID,10,VALID,0.494234,
2005-09-04, 00:56:00,VALID,915.815,VALID,0,VALID,99.3784,VALID,-0.0509425,VALID,20.1576,VALID,359,VALID,0.862614,
2005-09-04, 00:57:00,VALID,915.821,VALID,0,VALID,99.4954,VALID,-0.0849042,VALID,20.1318,VALID,6,VALID,0.54742,
2005-09-04, 00:58:00,VALID,915.814,VALID,0,VALID,99.5399,VALID,-0.0849042,VALID,20.1186,VALID,5,VALID,0.482469,
2005-09-04, 00:59:00,VALID,915.814,VALID,0,VALID,99.6595,VALID,-0.0849042,VALID,20.1388,VALID,5,VALID,0.0652902,
2005-09-04, 01:00:00,VALID,915.801,VALID,0,VALID,99.7129,VALID,-0.0509425,VALID,20.1189,VALID,5,VALID,0.236506,
2005-09-04, 01:01:00,VALID,915.787,VALID,0,VALID,99.7447,VALID,-0.101885,VALID,20.1196,VALID,5,VALID,0.332122,
2005-09-04, 01:02:00,VALID,915.769,VALID,0,VALID,99.6824,VALID,-0.101885,VALID,20.0901,VALID,11,VALID,1.06032,
2005-09-04, 01:03:00,VALID,915.749,VALID,0,VALID,99.7841,VALID,-0.101885,VALID,20.0712,VALID,19,VALID,1.39483,
2005-09-04, 01:04:00,VALID,915.739,VALID,0,VALID,99.5666,VALID,-0.0849042,VALID,20.0585,VALID,360,VALID,1.26283,
2005-09-04, 01:05:00,VALID,915.735,VALID,0,VALID,99.2386,VALID,-0.101885,VALID,20.0319,VALID,5,VALID,1.34993,
2005-09-04, 01:06:00,VALID,915.732,VALID,0,VALID,99.1343,VALID,-0.101885,VALID,20.0381,VALID,14,VALID,1.49146,
2005-09-04, 01:07:00,VALID,915.76,VALID,0,VALID,99.1241,VALID,-0.101885,VALID,20.0456,VALID,5,VALID,1.25502,
2005-09-04, 01:08:00,VALID,915.754,VALID,0,VALID,98.6752,VALID,-0.0849042,VALID,20.019,VALID,353,VALID,2.7377,
2005-09-04, 01:09:00,VALID,915.763,VALID,0,VALID,98.4578,VALID,-0.0849042,VALID,20.0416,VALID,11,VALID,2.06105,
2005-09-04, 01:10:00,VALID,915.766,VALID,0,VALID,98.4095,VALID,-0.101885,VALID,20.0518,VALID,12,VALID,1.7262,
2005-09-04, 01:11:00,VALID,915.77,VALID,0,VALID,98.1946,VALID,-0.0849042,VALID,20.0481,VALID,338,VALID,1.1715,
2005-09-04, 01:12:00,VALID,915.737,VALID,0,VALID,98.3764,VALID,-0.101885,VALID,20.0682,VALID,360,VALID,2.28534,
2005-09-04, 01:13:00,VALID,915.757,VALID,0,VALID,98.5354,VALID,-0.101885,VALID,20.0553,VALID,12,VALID,1.0543,
2005-09-04, 01:14:00,VALID,915.735,VALID,0,VALID,98.3586,VALID,-0.101885,VALID,20.0359,VALID,346,VALID,1.25363,
2005-09-04, 01:15:00,VALID,915.736,VALID,0,VALID,98.1297,VALID,-0.101885,VALID,20.0356,VALID,339,VALID,1.30941,
2005-09-04, 01:16:00,VALID,915.728,VALID,0,VALID,98.1488,VALID,-0.0339617,VALID,20.0386,VALID,6,VALID,1.30814,
2005-09-04, 01:17:00,VALID,915.707,VALID,0,VALID,98.3434,VALID,-0.0679233,VALID,20.0384,VALID,1,VALID,1.86384,
2005-09-04, 01:18:00,VALID,915.702,VALID,0,VALID,98.4553,VALID,-0.0509425,VALID,20.016,VALID,5,VALID,1.30282,
2005-09-04, 01:19:00,VALID,915.662,VALID,0,VALID,98.5748,VALID,-0.101885,VALID,20.0262,VALID,10,VALID,1.64009,
2005-09-04, 01:20:00,VALID,915.639,VALID,0,VALID,98.5684,VALID,-0.101885,VALID,20.0068,VALID,4,VALID,1.50856,
2005-09-04, 01:21:00,VALID,915.597,VALID,0,VALID,98.7312,VALID,-0.101885,VALID,19.9743,VALID,24,VALID,1.5465,
2005-09-04, 01:22:00,VALID,915.585,VALID,0,VALID,98.9118,VALID,-0.101885,VALID,19.9681,VALID,23,VALID,1.8417,
2005-09-04, 01:23:00,VALID,915.534,VALID,0,VALID,99.0631,VALID,-0.0509425,VALID,19.9457,VALID,20,VALID,1.26217,
2005-09-04, 01:24:00,VALID,915.498,VALID,0,VALID,99.1661,VALID,-0.101885,VALID,19.9194,VALID,21,VALID,1.30645,
2005-09-04, 01:25:00,VALID,915.497,VALID,0,VALID,99.2894,VALID,-0.0849042,VALID,19.9069,VALID,19,VALID,0.976926,
2005-09-04, 01:26:00,VALID,915.484,VALID,0,VALID,99.3708,VALID,-0.0849042,VALID,19.8814,VALID,23,VALID,1.47693,
2005-09-04, 01:27:00,VALID,915.474,VALID,0,VALID,99.5412,VALID,-0.0849042,VALID,19.8582,VALID,26,VALID,1.61701,
2005-09-04, 01:28:00,VALID,915.484,VALID,0,VALID,99.5781,VALID,-0.101885,VALID,19.8192,VALID,16,VALID,1.01804,
2005-09-04, 01:29:00,VALID,915.469,VALID,0,VALID,99.62,VALID,-0.0849042,VALID,19.8033,VALID,24,VALID,1.17615,
2005-09-04, 01:30:00,VALID,915.443,VALID,0,VALID,99.6785,VALID,0,VALID,19.7862,VALID,29,VALID,0.543241,
2005-09-04, 01:31:00,VALID,915.447,VALID,0,VALID,99.751,VALID,0,VALID,19.7763,VALID,17,VALID,0.428779,
2005-09-04, 01:32:00,VALID,915.431,VALID,0,VALID,99.7701,VALID,0,VALID,19.7797,VALID,359,VALID,0.959794,
2005-09-04, 01:33:00,VALID,915.424,VALID,0,VALID,99.6493,VALID,-0.0169808,VALID,19.777,VALID,10,VALID,0.743963,
2005-09-04, 01:34:00,VALID,915.411,VALID,0,VALID,99.6175,VALID,0,VALID,19.7539,VALID,355,VALID,1.19762,
2005-09-04, 01:35:00,VALID,915.44,VALID,0,VALID,99.5997,VALID,0,VALID,19.7412,VALID,311,VALID,0.39939,
2005-09-04, 01:36:00,VALID,915.467,VALID,0,VALID,99.765,VALID,0,VALID,19.7313,VALID,152,VALID,0.550327,
2005-09-04, 01:37:00,VALID,915.461,VALID,0,VALID,99.8438,VALID,0.0169808,VALID,19.7281,VALID,15,VALID,0.758384,
2005-09-04, 01:38:00,VALID,915.451,VALID,0,VALID,99.8426,VALID,0.0169808,VALID,19.7119,VALID,350,VALID,1.28616,
2005-09-04, 01:39:00,VALID,915.449,VALID,0,VALID,99.7726,VALID,0.0169808,VALID,19.6953,VALID,7,VALID,1.95694,
2005-09-04, 01:40:00,VALID,915.443,VALID,0,VALID,99.6048,VALID,0,VALID,19.7149,VALID,4,VALID,2.12843,
2005-09-04, 01:41:00,VALID,915.451,VALID,0,VALID,99.4357,VALID,0,VALID,19.744,VALID,357,VALID,1.12742,
2005-09-04, 01:42:00,VALID,915.402,VALID,0,VALID,99.4026,VALID,0,VALID,19.7504,VALID,10,VALID,1.70141,
2005-09-04, 01:43:00,VALID,915.381,VALID,0,VALID,99.3009,VALID,0.0339617,VALID,19.7564,VALID,352,VALID,1.70472,
2005-09-04, 01:44:00,VALID,915.389,VALID,0,VALID,99.2017,VALID,0.0169808,VALID,19.773,VALID,294,VALID,0.839757,
2005-09-04, 01:45:00,VALID,915.388,VALID,0,VALID,99.1241,VALID,0,VALID,19.7991,VALID,335,VALID,0.373828,
2005-09-04, 01:46:00,VALID,915.379,VALID,0,VALID,99.0783,VALID,0,VALID,19.7961,VALID,359,VALID,0.40483,
2005-09-04, 01:47:00,VALID,915.384,VALID,0,VALID,99.0885,VALID,0,VALID,19.7989,VALID,13,VALID,0.947731,
2005-09-04, 01:48:00,VALID,915.386,VALID,0,VALID,99.1101,VALID,0,VALID,19.8053,VALID,359,VALID,0.315696,
2005-09-04, 01:49:00,VALID,915.376,VALID,0,VALID,99.1445,VALID,0.0169808,VALID,19.8023,VALID,19,VALID,0.774182,
2005-09-04, 01:50:00,VALID,915.4,VALID,0,VALID,99.1864,VALID,0.0169808,VALID,19.7892,VALID,17,VALID,1.10804,
2005-09-04, 01:51:00,VALID,915.43,VALID,0,VALID,99.2665,VALID,0,VALID,19.7763,VALID,6,VALID,0.59468,
2005-09-04, 01:52:00,VALID,915.455,VALID,0,VALID,99.2602,VALID,0.0169808,VALID,19.7666,VALID,26,VALID,0.372738,
2005-09-04, 01:53:00,VALID,915.492,VALID,0,VALID,99.2589,VALID,0.0339617,VALID,19.7705,VALID,26,VALID,0,
2005-09-04, 01:54:00,VALID,915.515,VALID,0,VALID,99.2704,VALID,0.0169808,VALID,19.7444,VALID,24,VALID,0.59654,
2005-09-04, 01:55:00,VALID,915.512,VALID,0,VALID,99.3708,VALID,0,VALID,19.7449,VALID,13,VALID,1.57496,
2005-09-04, 01:56:00,VALID,915.513,VALID,0,VALID,99.4395,VALID,0,VALID,19.7512,VALID,17,VALID,1.19074,
2005-09-04, 01:57:00,VALID,915.517,VALID,0,VALID,99.5361,VALID,0,VALID,19.7514,VALID,14,VALID,1.48698,
2005-09-04, 01:58:00,VALID,915.495,VALID,0,VALID,99.5539,VALID,0,VALID,19.7477,VALID,353,VALID,1.36846,
2005-09-04, 01:59:00,VALID,915.498,VALID,0,VALID,99.601,VALID,0,VALID,19.7313,VALID,348,VALID,1.25457,
2005-09-04, 02:00:00,VALID,915.509,VALID,0,VALID,99.6468,VALID,0,VALID,19.7318,VALID,351,VALID,1.79799,
2005-09-04, 02:01:00,VALID,915.478,VALID,0,VALID,99.7065,VALID,0,VALID,19.7407,VALID,350,VALID,1.83929,
2005-09-04, 02:02:00,VALID,915.498,VALID,0,VALID,99.69,VALID,0,VALID,19.7705,VALID,11,VALID,1.7311,
2005-09-04, 02:03:00,VALID,915.513,VALID,0,VALID,99.6989,VALID,0,VALID,19.7705,VALID,353,VALID,1.07773,
2005-09-04, 02:04:00,VALID,915.531,VALID,0,VALID,99.6722,VALID,-0.0169808,VALID,19.7708,VALID,349,VALID,0.824124,
2005-09-04, 02:05:00,VALID,915.533,VALID,0,VALID,99.7332,VALID,0,VALID,19.7703,VALID,18,VALID,1.14063,
2005-09-04, 02:06:00,VALID,915.56,VALID,0,VALID,99.7078,VALID,0,VALID,19.7765,VALID,10,VALID,1.09821,
2005-09-04, 02:07:00,VALID,915.585,VALID,0,VALID,99.6556,VALID,0,VALID,19.7539,VALID,321,VALID,0.602679,
2005-09-04, 02:08:00,VALID,915.599,VALID,0,VALID,99.7587,VALID,0.0169808,VALID,19.7835,VALID,295,VALID,0.28311,
2005-09-04, 02:09:00,VALID,915.587,VALID,0,VALID,99.7612,VALID,0,VALID,19.7867,VALID,348,VALID,0.337209,
2005-09-04, 02:10:00,VALID,915.562,VALID,0,VALID,99.8082,VALID,0,VALID,19.7897,VALID,7,VALID,0.702951,
2005-09-04, 02:11:00,VALID,915.543,VALID,0,VALID,99.7688,VALID,0,VALID,19.7832,VALID,348,VALID,0.465014,
2005-09-04, 02:12:00,VALID,915.503,VALID,0,VALID,99.7002,VALID,0.0169808,VALID,19.7728,VALID,306,VALID,0.263081,
2005-09-04, 02:13:00,VALID,915.467,VALID,0,VALID,99.6353,VALID,-0.0169808,VALID,19.78,VALID,300,VALID,0.0706845,
2005-09-04, 02:14:00,VALID,915.426,VALID,0,VALID,99.5921,VALID,0.0169808,VALID,19.7765,VALID,321,VALID,0.649858,
2005-09-04, 02:15:00,VALID,915.389,VALID,0,VALID,99.5984,VALID,0.0169808,VALID,19.7735,VALID,11,VALID,0.76726,
2005-09-04, 02:16:00,VALID,915.373,VALID,0,VALID,99.62,VALID,0,VALID,19.7671,VALID,4,VALID,0.293605,
2005-09-04, 02:17:00,VALID,915.349,VALID,0,VALID,99.6417,VALID,-0.0169808,VALID,19.7574,VALID,4,VALID,0.15952,
2005-09-04, 02:18:00,VALID,915.346,VALID,0,VALID,99.7307,VALID,0,VALID,19.7412,VALID,4,VALID,0.309048,
2005-09-04, 02:19:00,VALID,915.34,VALID,0,VALID,99.8426,VALID,-0.0169808,VALID,19.7119,VALID,4,VALID,0.37282,
2005-09-04, 02:20:00,VALID,915.356,VALID,0,VALID,99.973,VALID,-0.0169808,VALID,19.7057,VALID,4,VALID,0.249238,
2005-09-04, 02:21:00,VALID,915.351,VALID,0,VALID,100,VALID,0,VALID,19.6928,VALID,8,VALID,0.586338,
2005-09-04, 02:22:00,VALID,915.355,VALID,0,VALID,100,VALID,0,VALID,19.6635,VALID,11,VALID,0.550114,
2005-09-04, 02:23:00,VALID,915.378,VALID,0,VALID,100,VALID,0,VALID,19.651,VALID,11,VALID,0.494965,
2005-09-04, 02:24:00,VALID,915.359,VALID,0,VALID,100,VALID,0,VALID,19.6344,VALID,11,VALID,0.414263,
2005-09-04, 02:25:00,VALID,915.36,VALID,0,VALID,100,VALID,-0.0169808,VALID,19.6158,VALID,11,VALID,0.492746,
2005-09-04, 02:26:00,VALID,915.339,VALID,0,VALID,100,VALID,0,VALID,19.6058,VALID,11,VALID,0.529474,
2005-09-04, 02:27:00,VALID,915.339,VALID,0,VALID,100,VALID,0,VALID,19.5892,VALID,11,VALID,0.523983,
2005-09-04, 02:28:00,VALID,915.333,VALID,0,VALID,100,VALID,0,VALID,19.5763,VALID,10,VALID,0.519444,
2005-09-04, 02:29:00,VALID,915.322,VALID,0,VALID,100,VALID,0.0169808,VALID,19.5768,VALID,9,VALID,0.615663,
2005-09-04, 02:30:00,VALID,915.329,VALID,0,VALID,100,VALID,-0.0339617,VALID,19.5807,VALID,14,VALID,0.773065,
2005-09-04, 02:31:00,VALID,915.34,VALID,0,VALID,100,VALID,-0.0169808,VALID,19.5579,VALID,1,VALID,0.804688,
2005-09-04, 02:32:00,VALID,915.355,VALID,0,VALID,100,VALID,-0.0509425,VALID,19.5581,VALID,353,VALID,0.646763,
2005-09-04, 02:33:00,VALID,915.359,VALID,0,VALID,100,VALID,0,VALID,19.5512,VALID,346,VALID,0.226181,
2005-09-04, 02:34:00,VALID,915.357,VALID,0,VALID,100,VALID,0,VALID,19.5477,VALID,355,VALID,0.742188,
2005-09-04, 02:35:00,VALID,915.366,VALID,0,VALID,100,VALID,-0.0339617,VALID,19.5512,VALID,3,VALID,0.788368,
2005-09-04, 02:36:00,VALID,915.36,VALID,0,VALID,100,VALID,-0.0339617,VALID,19.5482,VALID,359,VALID,0.967361,
2005-09-04, 02:37:00,VALID,915.353,VALID,0,VALID,100,VALID,-0.0509425,VALID,19.5517,VALID,359,VALID,1.04802,
2005-09-04, 02:38:00,VALID,915.336,VALID,0,VALID,100,VALID,-0.0169808,VALID,19.5482,VALID,10,VALID,0.980945,
2005-09-04, 02:39:00,VALID,915.326,VALID,0,VALID,100,VALID,0,VALID,19.5286,VALID,13,VALID,1.10919,
2005-09-04, 02:40:00,VALID,915.316,VALID,0,VALID,100,VALID,0,VALID,19.5154,VALID,3,VALID,1.20778,
2005-09-04, 02:41:00,VALID,915.295,VALID,0,VALID,100,VALID,0,VALID,19.5221,VALID,334,VALID,1.1061,
2005-09-04, 02:42:00,VALID,915.285,VALID,0,VALID,100,VALID,-0.0169808,VALID,19.5156,VALID,334,VALID,0.919389,
2005-09-04, 02:43:00,VALID,915.272,VALID,0,VALID,100,VALID,-0.0169808,VALID,19.5092,VALID,352,VALID,1.17668,
2005-09-04, 02:44:00,VALID,915.26,VALID,0,VALID,100,VALID,-0.0169808,VALID,19.5064,VALID,348,VALID,1.17024,
2005-09-04, 02:45:00,VALID,915.268,VALID,0,VALID,100,VALID,0,VALID,19.4963,VALID,336,VALID,0.994186,
2005-09-04, 02:46:00,VALID,915.272,VALID,0,VALID,100,VALID,-0.0679233,VALID,19.4997,VALID,345,VALID,0.997917,
2005-09-04, 02:47:00,VALID,915.286,VALID,0,VALID,100,VALID,-0.0339617,VALID,19.4863,VALID,347,VALID,0.779251,
2005-09-04, 02:48:00,VALID,915.285,VALID,0,VALID,100,VALID,-0.0509425,VALID,19.4933,VALID,343,VALID,1.15916,
2005-09-04, 02:49:00,VALID,915.286,VALID,0,VALID,100,VALID,-0.0509425,VALID,19.4938,VALID,358,VALID,1.03462,
2005-09-04, 02:50:00,VALID,915.258,VALID,0,VALID,100,VALID,-0.0509425,VALID,19.4734,VALID,346,VALID,1.38427,
2005-09-04, 02:51:00,VALID,915.235,VALID,0,VALID,100,VALID,-0.0169808,VALID,19.4774,VALID,355,VALID,0.988111,
2005-09-04, 02:52:00,VALID,915.208,VALID,0,VALID,100,VALID,-0.0169808,VALID,19.4677,VALID,338,VALID,1.05378,
2005-09-04, 02:53:00,VALID,915.164,VALID,0,VALID,100,VALID,-0.0509425,VALID,19.4674,VALID,348,VALID,0.904154,
2005-09-04, 02:54:00,VALID,915.135,VALID,0,VALID,100,VALID,-0.0509425,VALID,19.4645,VALID,342,VALID,0.849219,
2005-09-04, 02:55:00,VALID,915.107,VALID,0,VALID,100,VALID,-0.0339617,VALID,19.4612,VALID,349,VALID,1.24676,
2005-09-04, 02:56:00,VALID,915.082,VALID,0,VALID,100,VALID,-0.0169808,VALID,19.4386,VALID,338,VALID,0.837426,
2005-09-04, 02:57:00,VALID,915.06,VALID,0,VALID,100,VALID,-0.0169808,VALID,19.4287,VALID,342,VALID,0.734933,
2005-09-04, 02:58:00,VALID,915.039,VALID,0,VALID,100,VALID,-0.0509425,VALID,19.4262,VALID,351,VALID,1.05541,
2005-09-04, 02:59:00,VALID,915.036,VALID,0,VALID,100,VALID,-0.0169808,VALID,19.4289,VALID,342,VALID,1.15075,
2005-09-04, 03:00:00,VALID,915.018,VALID,0,VALID,100,VALID,-4.62593e-018,VALID,19.4153,VALID,345,VALID,1.34629,
2005-09-04, 03:01:00,VALID,914.989,VALID,0,VALID,100,VALID,0.0509425,VALID,19.4275,VALID,356,VALID,1.35278,
2005-09-04, 03:02:00,VALID,914.983,VALID,0,VALID,100,VALID,0.0849042,VALID,19.4275,VALID,360,VALID,1.27344,
2005-09-04, 03:03:00,VALID,914.965,VALID,0,VALID,100,VALID,0.0849042,VALID,19.427,VALID,352,VALID,1.13281,
2005-09-04, 03:04:00,VALID,914.96,VALID,0,VALID,100,VALID,0.0509425,VALID,19.424,VALID,353,VALID,1.3679,
2005-09-04, 03:05:00,VALID,914.968,VALID,0,VALID,100,VALID,0.0339617,VALID,19.4374,VALID,354,VALID,1.18806,
2005-09-04, 03:06:00,VALID,914.969,VALID,0,VALID,100,VALID,0.0849042,VALID,19.4369,VALID,358,VALID,1.02586,
2005-09-04, 03:07:00,VALID,914.96,VALID,0,VALID,100,VALID,0.0849042,VALID,19.4531,VALID,357,VALID,1.21094,
2005-09-04, 03:08:00,VALID,914.965,VALID,0,VALID,100,VALID,0.0509425,VALID,19.4662,VALID,349,VALID,1.18914,
2005-09-04, 03:09:00,VALID,914.949,VALID,0,VALID,100,VALID,0.0849042,VALID,19.4826,VALID,349,VALID,1.30678,
2005-09-04, 03:10:00,VALID,914.935,VALID,0,VALID,100,VALID,0.0509425,VALID,19.4819,VALID,5,VALID,1.31473,
2005-09-04, 03:11:00,VALID,914.918,VALID,0,VALID,100,VALID,0.0679233,VALID,19.4886,VALID,354,VALID,1.62873,
2005-09-04, 03:12:00,VALID,914.896,VALID,0,VALID,100,VALID,0.0339617,VALID,19.5151,VALID,350,VALID,1.33129,
2005-09-04, 03:13:00,VALID,914.884,VALID,0,VALID,100,VALID,0.0169808,VALID,19.5147,VALID,1,VALID,1.11681,
2005-09-04, 03:14:00,VALID,914.864,VALID,0,VALID,100,VALID,0.0509425,VALID,19.5214,VALID,353,VALID,1.33333,
2005-09-04, 03:15:00,VALID,914.848,VALID,0,VALID,100,VALID,-0.0169808,VALID,19.5221,VALID,360,VALID,1.07478,
2005-09-04, 03:16:00,VALID,914.832,VALID,0,VALID,100,VALID,-0.0169808,VALID,19.5219,VALID,15,VALID,1.70621,
2005-09-04, 03:17:00,VALID,914.827,VALID,0,VALID,100,VALID,-0.0169808,VALID,19.5387,VALID,8,VALID,1.40682,
2005-09-04, 03:18:00,VALID,914.815,VALID,0,VALID,100,VALID,0,VALID,19.5194,VALID,358,VALID,1.16582,
2005-09-04, 03:19:00,VALID,914.798,VALID,0,VALID,100,VALID,-0.0339617,VALID,19.5097,VALID,344,VALID,1.07402,
2005-09-04, 03:20:00,VALID,914.776,VALID,0,VALID,100,VALID,-0.0679233,VALID,19.5102,VALID,9,VALID,1.21615,
2005-09-04, 03:21:00,VALID,914.744,VALID,0,VALID,100,VALID,-0.0509425,VALID,19.5166,VALID,358,VALID,0.998666,
2005-09-04, 03:22:00,VALID,914.707,VALID,0,VALID,100,VALID,0,VALID,19.5097,VALID,354,VALID,1.01982,
2005-09-04, 03:23:00,VALID,914.683,VALID,0,VALID,100,VALID,-0.0509425,VALID,19.5064,VALID,342,VALID,1.08012,
2005-09-04, 03:24:00,VALID,914.653,VALID,0,VALID,100,VALID,-0.0169808,VALID,19.5422,VALID,296,VALID,0.740189,
2005-09-04, 03:25:00,VALID,914.607,VALID,0,VALID,100,VALID,-0.0169808,VALID,19.5611,VALID,306,VALID,0.773849,
2005-09-04, 03:26:00,VALID,914.577,VALID,0,VALID,100,VALID,-0.0169808,VALID,19.5646,VALID,297,VALID,0.420015,
2005-09-04, 03:27:00,VALID,914.541,VALID,0,VALID,100,VALID,-0.0509425,VALID,19.5678,VALID,288,VALID,0.720465,
2005-09-04, 03:28:00,VALID,914.526,VALID,0,VALID,100,VALID,0,VALID,19.5484,VALID,294,VALID,0.515092,
2005-09-04, 03:29:00,VALID,914.515,VALID,0,VALID,100,VALID,-0.0849042,VALID,19.5489,VALID,296,VALID,0.193945,
2005-09-04, 03:30:00,VALID,914.47,VALID,0,VALID,100,VALID,-0.0339617,VALID,19.5382,VALID,308,VALID,0.548549,
2005-09-04, 03:31:00,VALID,914.47,VALID,0,VALID,100,VALID,0,VALID,19.5117,VALID,18,VALID,1.10229,
2005-09-04, 03:32:00,VALID,914.488,VALID,0,VALID,100,VALID,0,VALID,19.4893,VALID,338,VALID,0.717115,
2005-09-04, 03:33:00,VALID,914.491,VALID,0,VALID,100,VALID,0.0169808,VALID,19.4925,VALID,334,VALID,0.762649,
2005-09-04, 03:34:00,VALID,914.512,VALID,0,VALID,100,VALID,0,VALID,19.4988,VALID,359,VALID,0.739524,
2005-09-04, 03:35:00,VALID,914.516,VALID,0,VALID,100,VALID,0.0169808,VALID,19.5117,VALID,8,VALID,0.964453,
2005-09-04, 03:36:00,VALID,914.526,VALID,0,VALID,100,VALID,0.0169808,VALID,19.5149,VALID,352,VALID,0.625,